Location: *
(46.3104°S, 178.4031°W)
Time: 12:34:48
(UTC+00:00)

Daily predictions for brighter satellites

Satellite Brightness Start Highest point End
(mag) Time Altitude Azimuth Time Altitude Azimuth Time Altitude Azimuth
CZ-4C R/B 4.3 15:35:01 25° SSE 15:35:01 25° SSE 15:37:36 10° SE
Cosmos 1697 Rocket 4.0 16:02:54 36° SE 16:02:54 36° SE 16:06:24 10° SE
USA 234 4.0 15:56:43 10° E 16:02:51 43° SSE 16:02:51 43° SSE
Lacrosse 5 rocket 4.3 16:16:13 11° SE 16:16:13 11° SE 16:16:21 10° SE
SJ 16-02 3.8 16:30:57 14° NNE 16:30:57 14° NNE 16:31:37 10° NNE
NOAA 6 4.5 16:26:24 10° NNE 16:30:45 58° ENE 16:30:45 58° ENE
Cosmos 2360 4.3 16:33:53 73° NE 16:34:00 73° ENE 16:39:45 10° SSE
Meteor 1-21 4.3 16:35:57 80° ESE 16:35:57 80° ESE 16:41:32 10° SSE
ATLAS CENTAUR R/B 4.2 16:35:12 12° SSE 16:35:54 12° SSE 16:37:58 10° SE
MOS 1-B 4.4 16:30:57 10° NNE 16:36:01 69° N 16:36:01 69° N
Cosmos 1726 3.9 16:43:50 30° ENE 16:43:50 30° ENE 16:46:15 10° NE
NOSS 2-3 (E) 4.3 16:48:22 62° SW 16:49:34 89° SE 16:55:03 10° NE
Cosmos 2263 Rocket 3.0 16:49:22 26° S 16:52:22 48° ESE 16:57:53 10° NE
Envisat 3.4 16:52:04 10° NNE 16:57:07 62° ESE 17:01:07 17° S
Cosmos 1461 3.3 17:03:00 55° ENE 17:03:00 55° ENE 17:06:06 10° NE
Cosmos 858 Rocket 4.4 17:03:38 58° SSW 17:04:43 86° WNW 17:09:58 10° NNE
NOSS 3-1 (C) 3.6 17:06:25 44° NW 17:06:25 44° NW 17:11:01 10° N
Meteor 2-10 3.8 17:06:37 36° SSW 17:08:53 84° W 17:13:59 10° N
Cosmos 990 Rocket 4.2 17:10:27 51° NW 17:10:27 51° NW 17:15:01 10° N
USA 267 3.3 17:03:27 10° SE 17:10:06 77° NE 17:14:36 22° NW
NOSS 2-3 (D) 4.3 17:10:05 44° SW 17:12:12 72° WNW 17:17:36 10° NNE
Atlas Centaur 2 4.4 17:09:41 18° NW 17:13:32 25° N 17:19:40 10° NE
Okean O Rocket 1.5 17:09:54 10° N 17:14:23 73° WNW 17:14:45 68° WSW
Cosmos 1980 Rocket 2.0 17:14:37 31° NW 17:17:25 73° WSW 17:23:07 10° SSE
Cosmos 1763 Rocket 3.4 17:15:53 41° NW 17:17:41 66° WSW 17:22:58 10° SSE
Cosmos 2195 Rocket 4.4 17:11:33 10° NNW 17:17:52 67° W 17:24:18 10° S
CORIOLIS 4.2 17:14:11 10° NNE 17:19:37 79° ESE 17:25:06 10° SSW
CZ-4C R/B 3.9 17:20:13 22° SSW 17:20:52 22° SSW 17:25:47 10° SSE
Cosmos 2369 4.0 17:20:46 44° WSW 17:20:54 44° SW 17:26:24 10° SSE
ARGOS Delta rocket 4.4 17:17:18 10° NNE 17:22:12 59° ESE 17:26:53 10° S
USA 229 DEB 3.9 17:23:20 38° W 17:24:46 43° WNW 17:30:51 10° N
USA 229 3.9 17:23:25 38° W 17:24:54 44° WNW 17:30:58 10° N
Cosmos 1898 Rocket 3.9 17:26:06 42° W 17:26:11 42° WNW 17:31:12 10° N
Cosmos 468 Rocket 4.3 17:30:49 41° W 17:31:43 44° WSW 17:36:46 10° S
Feng Yun 1-1 Rocket 4.4 17:26:44 10° NNE 17:32:14 74° ESE 17:37:56 10° SSW
KORONAS-FOTON 4.2 17:31:51 10° N 17:35:39 64° E 17:39:31 10° SSE
NOSS 3-1 (A) 3.6 17:34:58 34° WSW 17:36:54 45° WNW 17:42:05 10° N
Cosmos 2026 Rocket 4.0 17:31:01 10° NNW 17:37:03 56° WSW 17:43:16 10° S
Aureole 3 Rocket 2.9 17:36:46 46° SW 17:37:34 57° W 17:42:08 10° N
Cosmos 1939 Rocket 4.4 17:36:36 10° NE 17:40:22 37° ESE 17:44:14 10° S
Cosmos 1570 Rocket 4.0 17:35:04 10° NNW 17:40:27 73° WSW 17:45:54 10° SSE
Cosmos 540 Rocket 3.4 17:35:23 10° NNW 17:40:35 80° WSW 17:45:52 10° SSE
Cosmos 2278 4.0 17:38:07 28° WNW 17:40:37 44° SW 17:46:06 10° SSE
SMAP 3.2 17:37:40 10° N 17:42:15 54° W 17:45:30 19° SSW
SL-16 R/B 2.9 17:36:42 10° N 17:42:16 58° ENE 17:47:53 10° SSE
Cosmos 1689 Rocket 1.9 17:40:08 10° S 17:43:13 77° WSW 17:46:15 10° NNW
CZ-4 R/B 3.1 17:39:47 10° NE 17:43:39 35° ESE 17:47:35 10° S
FengYun 1-2 T 4.3 17:38:58 10° NNE 17:44:34 83° ESE 17:50:18 10° SSW
Cosmos 1697 Rocket 3.5 17:44:40 28° WSW 17:45:09 29° SW 17:50:04 10° S
USA 234 3.3 17:38:53 10° NE 17:45:30 88° SE 17:50:12 21° SW
Cosmos 1626 4.0 17:42:19 10° NNE 17:45:43 33° E 17:49:11 10° SSE
Cosmos 841 Rocket 3.4 17:41:24 10° NNW 17:46:41 69° WSW 17:52:02 10° SSE
Okean-O 3.4 17:44:51 10° NNE 17:49:13 54° ESE 17:53:38 10° S
Cosmos 2228 3.2 17:45:01 10° S 17:49:22 72° E 17:53:39 10° NNE
Cosmos 372 Rocket 3.9 17:45:25 16° SSW 17:49:38 76° WNW 17:54:45 10° NNE
Cosmos 1092 Rocket 4.5 17:44:46 10° NW 17:50:22 34° WSW 17:56:01 10° S
Cosmos 1953 2.9 17:50:07 35° WSW 17:50:31 36° W 17:54:13 10° NNW
CZ-4B R/B 3.8 17:45:32 10° NNW 17:50:40 37° W 17:54:40 16° SW
Orbus 7S? 3.8 17:49:36 14° NW 17:52:13 64° NE 17:58:03 10° SE
Lacrosse 5 rocket 2.9 17:51:51 19° SSW 17:52:28 19° S 17:55:31 10° SE
Cosmos 1908 3.1 17:52:24 12° SSW 17:55:56 68° W 17:59:45 10° N
YAOGAN 6 3.1 17:52:58 10° NNW 17:56:19 37° W 17:57:05 33° WSW
Cosmos 2150 Rocket 4.1 17:51:15 10° SSW 17:56:45 88° ESE 18:02:05 10° NNE
ATLAS 2AS CENTAUR R/B 4.3 17:52:05 10° SSW 17:56:48 21° SSE 18:01:45 10° ESE
Cosmos 1125 Rocket 4.1 17:51:59 10° SSW 17:57:16 59° ESE 18:02:26 10° NE
Cosmos 1937 Rocket 4.2 17:55:50 26° WSW 17:57:26 31° W 18:01:56 10° NNW
Cosmos 1025 Rocket 4.1 18:00:15 25° SW 18:00:15 25° SW 18:03:13 10° SSW
Cosmos 1300 4.0 17:57:20 10° S 18:01:05 43° ESE 18:04:46 10° NNE
Meteor 1-24 Rocket 4.2 18:01:58 10° N 18:07:16 62° E 18:12:35 10° SSE
ASTEX 1 3.4 18:02:37 10° N 18:07:29 63° W 18:12:28 10° SSW
COSMO-SKYMED 1 2.7 18:04:11 10° SSE 18:08:38 83° E 18:13:02 10° NNW
Cosmos 1818 4.0 18:03:27 10° NNW 18:08:48 64° ENE 18:14:11 10° SE
Cosmos 1892 Rocket 3.9 18:05:24 10° N 18:09:52 70° E 18:14:21 10° SSE
ADEOS Rocket 2.7 18:05:24 10° S 18:10:57 71° WSW 18:16:34 10° NNW
Cosmos 1655 Rocket 4.0 18:07:33 10° NNW 18:13:47 67° W 18:20:06 10° S
BREEZE-M DEB (TANK) 3.9 18:12:43 19° W 18:15:28 53° NNW 18:27:25 10° NE
ATLAS CENTAUR R/B 2.9 18:11:36 10° SSW 18:16:09 39° SE 18:20:43 10° ENE
Cosmos 1726 3.9 18:18:23 15° WNW 18:18:23 15° WNW 18:19:58 10° NW
YAOGAN 1 2.9 18:15:29 10° NNE 18:19:49 69° ESE 18:24:14 10° S
IRS-1C Rocket 4.3 18:14:44 10° N 18:19:52 50° W 18:25:04 10° SSW
Cosmos 2266 Rocket 4.0 18:14:21 10° NNW 18:20:41 78° W 18:26:59 10° S
Cosmos 1356 Rocket 3.4 18:17:22 10° S 18:21:35 90° NNE 18:25:48 10° N
Cosmos 2322 Rocket 2.2 18:16:33 10° NNW 18:22:18 86° WSW 18:28:06 10° SSE
Meteor 2-5 Rocket 3.6 18:16:53 10° NNW 18:22:29 77° WSW 18:28:08 10° S
Cosmos 1674 3.4 18:21:39 10° NW 18:25:01 30° WSW 18:28:28 10° S
Aureole 3 3.9 18:23:30 10° SSW 18:27:54 39° W 18:31:26 10° NNW
Cosmos 2058 Rocket 3.1 18:23:51 10° S 18:28:21 87° W 18:32:50 10° N
Cosmos 2292 Rocket 4.3 18:22:20 10° NNW 18:29:00 62° W 18:34:03 10° S
Helios 1A Rocket 3.8 18:25:44 10° NNW 18:29:23 31° W 18:33:07 10° SSW
Cosmos 2315 Rocket 4.0 18:29:34 10° S 18:35:54 79° W 18:42:08 10° N
Cosmos 2263 Rocket 3.1 18:31:09 10° SW 18:36:04 30° WNW 18:40:56 10° NNW
Cosmos 1606 Rocket 4.1 18:32:12 10° SSW 18:36:14 36° W 18:40:15 10° NNW
Envisat 4.4 18:33:01 10° NW 18:36:34 19° W 18:40:09 10° SW
ARGOS 4.5 18:33:47 10° NE 18:38:47 40° ESE 18:43:51 10° S
USA 116 3.4 18:38:11 10° SSE 18:41:24 76° ENE 18:44:42 10° N
Cosmos 1437 4.2 18:39:48 10° WNW 18:41:55 17° WSW 18:44:02 10° SSW
Cosmos 2219 Rocket 4.5 18:40:02 10° NNE 18:44:55 30° ENE 18:49:48 10° SE
ATLAS 5 CENTAUR R/B 2.7 18:45:17 10° NW 18:52:27 71° SW 18:58:59 10° SE
USA 267 3.6 18:46:36 10° SE 18:52:53 48° SSW 18:59:08 10° W
Cosmos 2237 4.3 18:47:10 10° NNW 18:52:53 87° WSW 18:58:40 10° SSE
Cosmos 2360 Rocket 2.3 18:47:39 10° NNW 18:53:20 90° ENE 18:59:04 10° SSE
H-2A R/B 2.4 18:49:33 10° NNE 18:54:27 65° ESE 18:59:30 10° S
Cosmos 1844 3.9 18:50:03 10° SSW 18:55:45 77° ESE 19:01:28 10° NNE
SKYMED 2 4.3 18:52:34 10° S 18:56:33 33° WSW 19:00:29 10° NW
Cosmos 2084 3.5 18:55:54 10° SW 19:00:15 87° SE 19:04:34 10° NE
